Total_Precipitation_Accumulation
2.14 2.22 2.16 2.13 2.12 2.04 2.05 2.21 2.31 2.14 1.97 1.78 1.62 1.55 1.56 1.46 1.54 1.37 1.33 1.27 1.11 1.07 1.09 1.08 1.26 1.58 1.80 1.96 2.11 2.12 2.27 2.38 2.45 2.59 2.56 2.41 2.38 2.23
2.13 2.24 2.28 2.25 2.26 2.21 2.10 2.08 2.03 2.08 2.00 1.78 1.59 1.50 1.63 1.47 1.57 1.36 1.31 1.47 1.27 1.19 1.11 1.00 0.99 1.08 1.21 1.38 1.61 1.71 1.75 1.81 1.89 2.14 2.33 2.33 2.25 2.07
1.92 2.02 2.15 2.21 2.31 2.35 2.37 2.27 2.13 2.07 2.02 1.85 1.65 1.54 1.70 1.69 1.57 1.49 1.37 1.30 1.29 1.27 1.14 1.09 1.04 0.95 0.99 1.07 1.28 1.43 1.51 1.37 1.29 1.45 1.70 1.81 2.01 2.04
1.83 1.78 1.84 1.91 2.06 2.21 2.31 2.28 2.28 2.16 2.09 2.10 1.93 1.69 1.59 1.63 1.65 1.71 1.60 1.37 1.33 1.42 1.35 1.23 1.16 1.02 0.93 0.96 1.05 1.10 1.16 1.17 1.06 1.02 1.13 1.24 1.36 1.55
1.61 1.54 1.53 1.60 1.75 1.89 1.98 2.07 2.20 2.23 2.26 2.24 2.18 1.99 1.73 1.70 1.74 1.74 1.76 1.80 1.56 1.48 1.47 1.40 1.32 1.21 1.12 1.01 0.97 0.99 0.96 0.96 0.95 0.88 0.86 0.99 1.05 1.19
1.26 1.24 1.26 1.31 1.40 1.55 1.70 1.92 2.10 2.21 2.27 2.30 2.26 2.05 1.87 1.80 1.74 1.75 1.83 1.90 1.88 1.65 1.52 1.43 1.48 1.42 1.26 1.14 1.06 1.02 1.02 0.97 0.97 0.95 0.87 0.83 0.87 0.90
1.03 0.91 0.93 1.01 1.04 1.13 1.17 1.46 1.72 1.94 2.06 2.13 2.13 2.00 1.81 1.70 1.55 1.57 1.70 1.88 1.96 1.92 1.81 1.51 1.44 1.39 1.33 1.27 1.18 1.10 1.05 1.09 1.05 1.03 1.03 0.96 0.96 0.94
0.90 0.82 0.80 0.85 0.78 0.75 0.78 1.01 1.30 1.48 1.66 1.85 1.91 1.80 1.66 1.59 1.64 1.62 1.61 1.67 1.71 1.63 1.62 1.63 1.54 1.45 1.37 1.31 1.31 1.28 1.21 1.17 1.20 1.16 1.14 1.11 1.09 1.13
0.93 0.94 0.85 0.81 0.90 0.79 0.73 0.81 0.89 1.00 1.16 1.42 1.64 1.63 1.73 1.67 1.57 1.51 1.52 1.57 1.57 1.62 1.62 1.62 1.52 1.42 1.32 1.29 1.42 1.33 1.33 1.29 1.30 1.33 1.25 1.25 1.23 1.22
1.00 1.07 1.06 0.99 0.97 1.03 0.96 0.97 0.93 0.87 0.95 0.86 1.06 1.43 1.59 1.65 1.61 1.64 1.74 1.68 1.55 1.57 1.58 1.60 1.52 1.41 1.27 1.19 1.29 1.20 1.13 1.13 1.22 1.39 1.47 1.44 1.46 1.42
0.90 1.02 1.06 1.01 1.06 1.12 1.21 1.26 1.18 1.03 1.15 1.15 1.05 1.16 1.32 1.37 1.49 1.58 1.64 1.58 1.53 1.45 1.33 1.30 1.27 1.30 1.35 1.26 1.21 1.24 1.16 1.11 1.09 1.11 1.21 1.28 1.39 1.54
0.91 0.98 1.14 1.06 1.03 1.01 1.07 1.19 1.18 1.05 0.93 0.96 0.93 0.83 0.77 0.89 1.10 1.25 1.54 1.66 1.61 1.51 1.31 1.24 1.27 1.26 1.29 1.20 1.10 1.12 1.12 1.19 1.18 1.12 1.14 1.21 1.29 1.34
1.03 1.07 1.05 1.15 0.99 0.94 0.94 0.94 1.03 1.03 1.00 1.04 1.10 0.99 0.87 0.82 0.87 0.96 1.17 1.41 1.56 1.48 1.34 1.22 1.26 1.29 1.20 1.07 1.01 1.02 1.03 1.02 1.06 1.13 1.18 1.28 1.33 1.26
0.92 0.93 0.90 0.99 0.85 0.76 0.70 0.76 0.84 0.89 0.96 1.08 1.07 1.02 1.00 0.94 0.93 0.97 1.04 1.16 1.26 1.34 1.35 1.31 1.27 1.25 1.20 1.06 1.00 0.99 0.99 0.97 0.94 0.99 1.03 1.27 1.42 1.45
0.65 0.76 0.80 0.77 0.71 0.63 0.67 0.71 0.73 0.74 0.84 0.93 0.95 0.91 0.91 0.95 0.96 0.97 1.00 1.05 1.05 1.01 1.03 1.10 1.22 1.27 1.26 1.16 1.02 1.00 1.00 0.95 0.88 0.89 0.97 1.04 1.11 1.27
0.57 0.62 0.65 0.62 0.61 0.61 0.64 0.68 0.73 0.76 0.79 0.82 0.83 0.86 0.87 0.93 0.99 0.97 0.98 1.05 1.11 1.07 1.01 1.05 1.15 1.28 1.29 1.20 1.14 1.07 1.04 1.00 0.92 0.88 0.89 0.97 1.06 1.15
0.67 0.62 0.60 0.60 0.60 0.66 0.69 0.68 0.71 0.76 0.75 0.74 0.77 0.78 0.77 0.83 0.88 0.89 0.92 0.97 1.02 0.98 0.98 1.04 1.12 1.21 1.24 1.23 1.25 1.16 1.14 1.15 1.11 1.07 1.02 1.00 1.01 1.07
0.67 0.73 0.76 0.81 0.83 0.82 0.78 0.69 0.65 0.67 0.72 0.78 0.79 0.79 0.79 0.77 0.80 0.84 0.88 0.96 1.00 0.93 0.86 0.90 1.02 1.15 1.16 1.08 1.01 1.01 1.04 1.06 1.13 1.19 1.13 1.08 1.02 1.04
0.64 0.81 0.84 0.82 0.78 0.74 0.69 0.62 0.57 0.55 0.58 0.68 0.78 0.85 0.85 0.84 0.87 0.90 0.91 0.89 0.90 0.91 0.85 0.81 0.87 1.02 1.08 0.94 0.84 0.82 0.87 0.91 0.99 1.05 1.08 1.01 0.96 1.00
0.60 0.71 0.74 0.72 0.65 0.59 0.52 0.46 0.47 0.46 0.46 0.52 0.57 0.65 0.79 0.90 0.98 1.01 1.03 1.05 1.04 1.02 0.96 0.86 0.80 0.83 0.94 0.94 0.83 0.72 0.73 0.80 0.90 0.94 0.96 0.97 0.97 1.03
0.42 0.44 0.45 0.47 0.46 0.43 0.40 0.40 0.42 0.43 0.45 0.46 0.47 0.52 0.62 0.77 0.94 1.05 1.08 1.14 1.12 1.12 1.11 1.03 0.99 1.06 0.98 1.00 0.97 0.78 0.68 0.72 0.81 0.84 0.89 0.97 0.98 0.94
0.35 0.34 0.35 0.36 0.36 0.35 0.35 0.38 0.42 0.44 0.43 0.45 0.50 0.57 0.66 0.72 0.78 0.89 1.04 1.08 1.01 0.98 1.00 1.03 1.07 1.08 1.04 1.08 1.05 0.91 0.80 0.74 0.78 0.86 0.89 0.94 0.96 0.95
0.34 0.36 0.39 0.38 0.38 0.41 0.42 0.41 0.43 0.45 0.45 0.45 0.49 0.56 0.66 0.76 0.82 0.85 0.88 0.93 0.97 1.00 1.00 1.00 0.99 1.00 1.02 1.07 1.15 1.12 0.99 0.89 0.86 0.88 0.88 0.98 0.94 0.84